Weather History for Jersey, United Kingdom

Change the Weather History Date:

Wednesday, August 21, 2013

  Actual Average Record
Temperature  
Mean Temperature 62 °F -  
Max Temperature 73 °F 65 °F 75 °F (2001)
Min Temperature 52 °F 55 °F 49 °F (2014)
Degree Days  
Heating Degree Days 2    
Growing Degree Days 12 (Base 50)    
Moisture  
Dew Point 54 °F    
Average Humidity 69    
Maximum Humidity 94    
Minimum Humidity 33    
Precipitation  
Precipitation 0.00 in - - ()
Sea Level Pressure  
Sea Level Pressure 30.24 in    
Wind  
Wind Speed 7 mph ()    
Max Wind Speed 14 mph    
Max Gust Speed -    
Visibility 6.2 miles    
Events      
Averages and records for this station are not official NWS values.
T = Trace of Precipitation, MM = Missing Value Source: Averaged Metar Reports

Daily Weather History Graph

Daily Weather History Graph

Search for Another Location

Airport:

Trip Planner

Search our weather history database for the weather conditions in past years. The results will help you decide how hot, cold, wet, or windy it might be!

Date:

Astronomy

Aug. 21, 2013 Rise Set
Actual Time 6:09 AM BST 8:13 PM BST
Civil Twilight 5:34 AM BST 8:47 PM BST
Nautical Twilight 4:52 AM BST 9:30 PM BST
Astronomical Twilight 4:03 AM BST 10:17 PM BST
Moon 8:02 PM BST (8/21) 6:39 AM BST (8/21)
Length of Visible Light 15h 12m
Length of Day
14h 04m
Full, 100% of the Moon is Illuminated
Aug 21
Full
Aug 28
Last Quarter
Sep 5
New
Sep 12
First Quarter
Sep 19
Full

Hourly Weather History & Observations

Time (BST) Temp. Dew Point Humidity Pressure Visibility Wind Dir Wind Speed Gust Speed Precip Events Conditions
1:00 AM 54 °F 50 °F 81% 30.33 in 31 mi East 9.2 mph - -   Clear
3:50 AM 55.4 °F 53.6 °F 94% 30.27 in - East 6.9 mph - N/A   Clear
4:20 AM 55.4 °F 53.6 °F 94% 30.27 in - East 8.1 mph - N/A   Clear
4:50 AM 55.4 °F 53.6 °F 94% 30.27 in - East 8.1 mph - N/A   Clear
5:20 AM 57.2 °F 53.6 °F 88% 30.27 in - East 6.9 mph - N/A   Clear
5:50 AM 57.2 °F 53.6 °F 88% 30.27 in - East 6.9 mph - N/A   Clear
6:20 AM 57.2 °F 53.6 °F 88% 30.27 in - ENE 5.8 mph - N/A   Clear
6:50 AM 57.2 °F 55.4 °F 94% 30.27 in - ENE 5.8 mph - N/A   Clear
7:00 AM 58 °F 55 °F 88% 30.29 in 25 mi ENE 6.9 mph - -   Scattered Clouds
7:20 AM 59.0 °F 55.4 °F 88% 30.27 in - ENE 5.8 mph - N/A   Clear
7:50 AM 60.8 °F 57.2 °F 88% 30.27 in - East 6.9 mph - N/A   Clear
8:20 AM 62.6 °F 57.2 °F 82% 30.27 in - East 6.9 mph - N/A   Clear
8:50 AM 64.4 °F 57.2 °F 77% 30.27 in - ESE 6.9 mph - N/A   Clear
9:20 AM 66.2 °F 57.2 °F 73% 30.27 in - ESE 4.6 mph - N/A   Clear
9:50 AM 68.0 °F 55.4 °F 64% 30.27 in - Variable 3.5 mph - N/A   Clear
10:00 AM 68 °F 54 °F 51% 30.27 in 22 mi WNW 1.2 mph - -   Scattered Clouds
10:20 AM 68.0 °F 57.2 °F 68% 30.27 in - West 6.9 mph - N/A   Clear
10:50 AM 69.8 °F 57.2 °F 64% 30.27 in 6.2 mi West 6.9 mph - N/A   Partly Cloudy
11:20 AM 69.8 °F 53.6 °F 56% 30.24 in 6.2 mi West 6.9 mph - N/A   Partly Cloudy
11:50 AM 71.6 °F 53.6 °F 53% 30.27 in - West 6.9 mph - N/A   Clear
12:20 PM 69.8 °F 53.6 °F 56% 30.27 in - West 6.9 mph - N/A   Clear
12:50 PM 71.6 °F 50.0 °F 46% 30.24 in - West 6.9 mph - N/A   Clear
1:00 PM 71 °F 48 °F 33% 30.25 in 22 mi North 4.6 mph - -   Clear
1:20 PM 71.6 °F 53.6 °F 53% 30.24 in - West 6.9 mph - N/A   Clear
1:50 PM 71.6 °F 57.2 °F 60% 30.24 in - West 6.9 mph - N/A   Clear
2:20 PM 71.6 °F 51.8 °F 50% 30.24 in - West 6.9 mph - N/A   Clear
2:50 PM 71.6 °F 53.6 °F 53% 30.21 in - West 6.9 mph - N/A   Clear
3:20 PM 71.6 °F 55.4 °F 57% 30.21 in - West 6.9 mph - N/A   Clear
3:50 PM 71.6 °F 53.6 °F 53% 30.21 in - West 6.9 mph - N/A   Clear
4:00 PM 71 °F 53 °F 41% 30.20 in 22 mi West 5.8 mph - -   Scattered Clouds
4:20 PM 71.6 °F 50.0 °F 46% 30.21 in - West 6.9 mph - N/A   Clear
4:50 PM 69.8 °F 57.2 °F 64% 30.21 in - West 6.9 mph - N/A   Clear
5:20 PM 66.2 °F 55.4 °F 68% 30.18 in - West 6.9 mph - N/A   Clear
5:50 PM 68.0 °F 50.0 °F 52% 30.18 in - West 6.9 mph - N/A   Clear
6:20 PM 66.2 °F 53.6 °F 64% 30.18 in - North 8.1 mph - N/A   Clear
6:50 PM 64.4 °F 55.4 °F 73% 30.18 in - NNE 10.4 mph - N/A   Clear
7:00 PM 65 °F 56 °F 66% 30.18 in 22 mi NNE 9.2 mph - -   Partly Cloudy
7:20 PM 64.4 °F 57.2 °F 77% 30.18 in - NNE 13.8 mph - N/A   Clear
7:50 PM 64.4 °F 57.2 °F 77% 30.15 in - NNE 11.5 mph - N/A   Clear
8:20 PM 64.4 °F 57.2 °F 77% 30.15 in - NNE 9.2 mph - N/A   Clear
8:50 PM 62.6 °F 57.2 °F 82% 30.15 in - NE 11.5 mph - N/A   Clear